Temp
17 18 18 18 18 18 18 18 18 18 18 18 18 18 18 18 18 19 19 19 19 19 19 19 19 20 20 20 20 20 20 20 20 19 19 18 17 18 18 18 19 19 19 20 21 21 21 21 20 20 22 21 18 17 17 16 15 19 21 19 19 18 18 19 19 17 18 20 17 13 11 15 16 14 12 12 13 14 13 13 13 11 9 7 8 8 7 8
17 18 18 18 18 18 18 18 18 18 18 18 18 18 18 18 18 19 19 19 19 19 19 19 19 20 20 20 20 20 20 19 19 18 18 18 18 18 18 19 19 19 19 20 20 20 21 20 18 19 21 21 18 18 19 16 17 19 18 18 20 19 18 17 18 17 17 19 17 14 12 13 16 14 13 15 15 13 14 15 13 13 11 7 6 6 7 7
17 18 18 18 18 18 18 18 18 18 18 18 18 18 18 19 19 19 19 19 19 19 19 19 19 20 20 20 20 20 20 19 19 18 18 18 18 18 19 19 19 19 19 20 20 19 20 19 18 19 21 20 18 18 20 18 17 18 17 20 20 18 18 15 15 16 15 16 17 15 11 12 14 13 14 15 15 14 15 16 14 15 14 11 6 5 6 6
18 18 18 18 18 18 18 18 18 18 18 18 18 18 18 19 19 19 19 19 19 19 19 19 19 20 20 20 20 20 19 20 20 18 18 18 18 19 19 19 19 19 20 19 20 19 19 18 18 19 21 20 18 17 19 18 17 17 17 21 19 16 17 16 14 15 13 13 16 15 12 13 13 12 14 15 16 16 16 15 15 16 15 13 7 4 5 5
18 18 18 18 18 18 18 18 18 18 19 19 19 19 18 19 19 19 19 19 19 19 19 19 19 19 20 20 20 20 20 21 19 18 18 18 18 19 19 19 19 20 20 20 19 19 19 18 18 19 20 20 19 19 19 16 16 18 17 18 16 14 18 17 13 13 12 12 14 14 14 14 12 12 14 14 16 16 14 13 13 14 13 12 8 4 5 5
18 18 18 18 18 18 18 19 19 19 19 19 19 19 19 19 19 19 19 19 19 19 19 20 20 19 20 20 20 20 21 21 18 18 18 18 19 19 19 19 19 20 19 20 19 19 19 18 19 20 20 19 19 19 18 14 15 19 18 15 14 14 17 15 12 12 12 14 16 15 15 13 13 14 12 13 15 13 11 9 9 9 8 8 6 5 5 5
18 18 18 18 18 18 18 19 19 19 19 19 19 19 19 19 19 19 19 19 19 19 19 19 20 20 19 20 20 19 20 19 18 18 18 18 19 19 19 19 19 20 19 19 19 19 19 19 20 19 19 20 19 18 17 15 15 18 19 17 14 13 14 13 11 12 12 15 15 13 13 13 15 15 11 13 14 10 7 5 4 5 4 5 5 5 5 5
18 18 18 18 18 18 18 18 18 18 18 18 19 19 19 19 19 19 19 19 19 19 19 19 19 19 20 20 19 19 19 18 18 18 18 18 19 19 19 19 19 20 19 19 18 18 19 19 19 17 19 19 18 18 15 15 17 17 18 17 14 12 13 11 10 11 12 13 12 12 14 14 14 12 12 14 11 7 6 4 3 4 4 5 5 5 4 4
18 18 18 18 18 18 18 18 18 18 18 18 19 19 19 19 19 19 19 19 19 19 19 19 19 19 20 18 18 20 19 18 18 18 18 19 19 19 19 19 19 19 19 18 17 18 18 19 18 18 20 18 17 17 15 17 18 17 17 16 14 14 13 11 11 12 12 12 11 13 15 13 10 10 13 13 8 6 5 5 5 6 6 5 5 4 3 3
18 18 18 18 18 18 18 18 18 18 18 19 19 19 19 19 19 19 19 19 19 19 19 19 19 19 20 18 18 20 19 17 18 18 18 18 19 18 19 19 19 19 18 17 17 17 18 18 16 16 18 17 16 16 15 17 17 14 15 15 14 14 12 11 12 12 12 12 12 14 15 12 10 11 15 12 7 5 6 6 5 5 5 4 4 3 2 3
18 18 18 18 18 18 18 18 18 19 19 19 19 20 20 20 20 19 19 19 19 19 19 19 19 19 19 18 19 19 18 17 18 18 18 18 19 18 18 18 18 19 18 17 17 17 17 17 14 15 18 17 16 15 14 15 14 13 14 15 15 14 12 11 13 12 12 13 12 14 14 12 11 13 13 9 5 5 6 6 4 4 3 2 3 2 2 2
18 18 18 18 18 18 18 18 18 19 19 20 20 20 20 20 20 20 20 19 19 19 19 19 19 19 19 18 19 19 18 18 18 17 18 18 18 18 18 18 18 18 18 17 17 17 17 16 15 17 18 17 17 16 15 13 13 13 13 16 17 15 15 13 12 12 12 14 11 12 15 13 13 12 9 7 5 5 5 5 3 3 2 2 2 2 2 1
18 18 18 18 18 18 18 19 19 19 20 20 20 20 20 20 20 20 20 20 20 19 19 19 19 19 19 19 18 18 18 18 18 18 18 18 18 18 18 18 18 18 18 18 18 17 17 16 16 17 15 16 17 15 14 12 12 14 13 16 17 17 17 13 11 12 13 14 10 12 18 15 12 10 8 5 5 6 6 4 3 3 2 2 2 2 2 2
18 19 19 18 18 18 19 19 19 20 20 20 20 21 21 21 21 20 20 20 20 20 19 19 19 18 18 19 18 18 18 18 18 18 18 18 18 18 18 17 17 18 18 18 18 17 17 16 16 15 13 15 15 13 14 14 14 15 15 15 15 18 19 13 10 12 14 13 10 14 18 16 12 9 7 4 4 7 6 3 3 3 3 3 2 2 2 1
19 19 19 19 19 19 19 20 20 20 21 21 21 21 21 21 21 20 20 20 20 19 19 19 19 18 18 19 18 18 18 18 18 17 17 17 17 18 18 17 17 17 18 17 18 17 16 16 16 16 14 12 13 15 17 16 15 15 17 17 15 16 18 15 10 11 14 13 11 15 17 15 11 8 6 4 4 6 5 3 3 3 3 3 3 2 2 1
19 19 19 19 19 19 20 20 20 20 21 21 21 21 21 21 21 20 20 20 20 19 19 19 19 19 19 19 18 18 17 17 17 16 16 16 17 16 17 17 16 17 17 17 17 16 16 17 15 13 14 14 15 17 17 17 17 15 16 18 16 16 17 16 12 9 11 13 13 14 16 14 10 7 5 4 4 5 4 3 3 3 3 3 3 2 1 1
19 19 19 19 19 19 20 20 20 20 21 21 21 21 21 21 20 20 20 20 20 19 19 19 18 18 19 19 18 18 16 16 16 16 16 16 16 16 16 16 15 15 16 16 17 16 16 16 13 13 15 14 15 17 18 18 19 16 15 17 16 15 16 17 15 11 9 13 14 13 14 12 7 5 5 4 4 4 4 4 3 3 3 2 2 1 1 0
19 19 19 19 19 20 20 20 20 20 21 21 22 21 21 20 20 20 20 20 19 19 19 19 18 18 19 18 17 16 15 15 16 16 16 16 15 15 16 16 14 15 16 16 17 17 16 15 14 16 16 15 15 17 18 18 18 18 17 17 16 14 14 15 16 12 10 13 13 13 14 11 6 4 5 4 4 4 3 3 3 2 2 2 1 0 0 -0
19 19 19 19 20 20 20 20 21 20 21 21 22 21 20 20 20 20 19 19 19 19 19 17 17 18 19 17 15 15 15 15 15 16 15 15 15 15 15 15 14 16 18 18 17 16 15 16 16 17 18 17 17 17 17 17 16 17 16 16 16 15 14 15 14 10 9 13 13 12 12 9 6 5 4 4 4 4 3 3 2 2 2 1 1 0 -1 -1
19 19 19 19 20 20 20 20 20 20 20 21 21 21 20 19 20 20 18 17 15 14 16 16 15 16 17 16 14 15 16 15 15 15 15 15 14 15 15 14 16 17 17 17 18 14 13 17 18 17 17 16 14 13 13 14 13 14 15 15 14 14 15 14 13 9 8 12 12 9 9 7 5 4 4 4 4 3 3 3 2 2 1 1 0 -0 -1 -1
19 19 19 19 20 20 20 20 20 20 20 21 21 20 18 18 19 19 17 15 11 9 13 13 12 14 15 14 13 13 14 16 16 15 15 15 14 16 16 15 18 18 15 13 15 13 13 18 16 13 12 11 11 10 11 12 13 14 14 14 14 13 14 13 11 9 8 12 11 8 8 6 3 4 3 4 4 3 3 2 2 1 1 1 -0 -1 -1 -1
19 19 19 20 20 20 20 20 20 20 20 21 20 16 14 14 15 15 15 17 14 9 11 11 10 13 14 13 13 12 13 16 16 15 14 14 15 16 16 16 17 17 14 13 15 15 16 17 13 10 9 9 10 9 11 13 13 13 13 13 14 13 13 11 10 9 9 12 11 8 9 6 3 3 3 3 3 2 2 2 2 1 1 0 -0 -1 -1 -2
19 19 19 20 20 20 20 20 20 20 20 19 17 14 13 13 14 13 14 17 17 13 13 14 14 15 15 14 13 13 14 15 15 15 13 14 15 14 14 15 16 15 15 15 16 17 17 15 10 8 8 10 12 11 12 13 13 13 13 13 14 12 13 13 12 10 9 10 10 9 9 5 4 4 3 3 2 1 2 2 1 1 0 0 -0 -1 -1 -2
19 19 20 20 20 20 20 20 20 19 18 17 16 14 14 14 14 14 14 15 16 15 14 13 13 15 15 14 13 14 15 13 13 14 13 13 14 13 13 14 15 16 14 14 15 16 16 12 8 8 9 11 13 12 12 13 14 13 12 13 14 12 12 13 11 11 10 9 8 9 10 7 4 5 3 3 3 2 2 1 1 1 -0 -0 -1 -1 -2 -2
19 19 20 20 20 20 20 20 19 18 17 16 15 14 13 14 13 14 15 15 17 17 14 13 13 14 14 14 14 13 13 13 13 13 11 11 12 13 13 11 13 16 14 12 14 15 14 9 7 10 11 11 13 13 12 13 13 13 12 11 11 11 12 11 11 11 12 12 9 9 13 10 4 3 4 3 3 2 2 1 1 0 -0 -1 -1 -2 -2 -2
19 19 19 20 20 20 20 20 18 17 17 15 14 14 14 14 14 14 15 17 18 17 16 16 15 15 15 13 12 10 13 15 13 11 11 11 11 12 14 12 13 14 13 12 12 13 12 8 8 11 12 12 13 13 11 11 13 14 11 9 9 10 11 11 11 11 12 13 9 9 13 11 5 4 4 3 3 2 2 1 1 0 -0 -1 -2 -2 -2 -3
19 19 19 20 19 20 20 19 17 17 17 15 14 14 14 14 14 14 16 18 18 16 16 17 16 16 15 13 10 12 16 16 13 12 11 11 11 11 14 14 13 13 11 12 14 13 11 11 11 11 12 13 13 13 11 10 13 14 10 8 10 10 10 10 10 11 11 10 9 8 10 11 8 5 3 3 3 3 2 1 1 -0 -1 -1 -2 -2 -2 -3
19 19 19 19 19 19 18 18 17 16 16 15 14 14 14 14 14 14 17 19 17 16 16 16 16 16 14 11 11 14 15 13 15 14 11 11 11 11 15 14 13 13 10 12 17 13 10 12 12 12 13 13 13 12 10 9 12 12 8 7 8 8 9 9 9 10 8 9 11 9 8 11 10 5 2 3 3 3 2 1 0 -0 -1 -2 -2 -2 -2 -3
19 19 18 18 18 18 17 17 17 15 15 15 14 14 14 14 14 16 19 19 16 16 16 16 17 15 13 13 13 13 13 13 14 13 10 12 12 12 14 12 12 13 11 12 16 13 9 10 9 10 12 12 11 10 8 9 11 9 6 6 7 7 7 7 9 9 8 10 12 9 8 11 10 4 2 4 4 3 3 1 1 -0 -1 -2 -2 -2 -2 -3
19 18 18 18 18 17 17 17 16 15 15 14 14 14 14 14 15 18 19 18 16 16 15 15 15 13 12 15 16 13 13 13 11 11 12 12 12 11 10 9 10 13 12 11 13 11 9 7 7 9 10 10 9 7 6 7 8 7 7 8 8 7 7 7 7 8 10 12 11 8 7 10 11 6 3 4 3 3 3 2 0 -1 -1 -1 -2 -2 -2 -3
18 18 18 18 17 17 17 16 16 15 15 15 14 13 14 16 17 19 18 16 16 15 15 14 13 11 11 13 14 12 12 13 10 12 13 11 11 12 11 11 11 13 14 13 13 11 9 9 9 8 7 7 8 8 6 5 6 7 9 10 11 10 9 9 9 9 11 12 9 7 7 9 11 7 3 3 1 1 3 2 1 -0 -1 -1 -2 -2 -2 -2
18 18 17 17 17 17 16 16 15 15 15 15 13 13 16 18 17 17 16 16 16 15 13 13 11 11 11 10 12 11 11 13 11 10 11 11 10 9 10 10 10 13 15 13 13 13 12 11 9 8 7 6 9 11 9 7 8 10 11 11 12 12 11 11 11 10 11 11 8 6 7 9 9 5 1 1 -0 0 2 2 0 -1 -1 -1 -1 -1 -2 -2
18 17 17 17 16 16 16 15 16 15 15 14 14 14 18 20 18 15 14 15 15 13 11 11 10 10 10 12 13 10 10 12 12 10 9 10 11 9 8 8 8 12 14 12 12 13 13 12 9 10 9 7 9 12 12 11 10 11 11 11 12 11 11 11 11 9 10 10 7 6 8 9 8 3 -0 -1 -1 -1 0 -0 -0 -1 -1 -1 -1 -1 -1 -2
17 17 17 17 16 16 16 15 15 15 14 14 16 18 19 19 16 13 14 14 12 11 10 10 10 11 11 13 12 9 11 13 11 11 11 11 12 11 10 9 8 10 11 11 11 10 13 14 11 11 10 8 9 9 10 10 10 9 8 9 11 11 11 11 10 10 10 9 7 7 8 9 8 4 -0 -1 -1 -1 -1 -1 -1 -1 -1 -1 -1 -1 -1 -2
17 17 17 17 16 16 16 15 15 14 14 15 17 19 18 17 14 13 13 12 11 11 10 8 10 13 14 12 10 9 11 13 11 11 12 12 11 10 10 10 9 8 10 12 10 9 12 13 11 8 7 8 9 7 6 9 10 8 7 9 11 10 10 9 8 7 7 7 7 8 7 5 4 2 -0 -0 -0 -1 -1 -1 -1 -1 -1 -1 -1 -1 -1 -2
17 17 17 17 16 16 15 15 15 14 14 17 19 17 15 14 13 12 12 11 10 10 10 11 12 14 15 13 12 11 10 11 11 12 12 11 10 9 9 9 7 8 9 11 10 10 12 13 10 8 7 7 7 6 6 8 10 9 8 10 9 7 9 9 7 5 5 7 7 7 7 4 2 2 1 0 0 -1 -1 -1 -1 -1 -1 -1 -0 -1 -1 -1
17 17 17 17 16 16 15 15 15 14 15 18 19 15 12 11 11 10 9 9 8 8 10 14 13 13 13 13 13 13 11 11 11 12 12 11 10 10 9 8 7 7 7 8 9 9 10 11 11 9 10 8 4 5 7 6 8 10 10 9 7 6 8 8 8 7 7 8 8 6 6 6 6 5 1 0 1 -0 -1 -1 -1 -1 -1 -1 -1 -1 -1 -1
17 17 17 17 16 16 16 16 14 14 16 17 15 12 11 10 9 8 7 7 8 8 11 13 13 12 12 12 13 11 11 13 12 11 12 11 11 10 9 9 7 6 5 6 9 9 8 11 11 8 9 8 5 7 9 7 6 8 9 8 7 9 9 8 8 9 7 7 7 6 5 5 7 6 3 2 2 0 -0 -1 -1 -1 -1 -1 -1 -1 -1 -1
17 18 18 16 16 16 16 16 13 14 18 17 14 12 10 10 8 6 6 6 7 9 11 11 10 11 11 11 12 11 10 12 12 11 12 12 11 9 8 8 8 7 5 6 8 8 7 10 11 9 8 8 8 9 10 9 7 7 8 7 8 8 8 7 7 7 7 7 6 6 6 6 6 4 4 4 2 1 0 -1 -1 -0 -1 -1 -1 -1 -1 -1
16 18 18 16 16 16 16 15 14 15 17 14 11 11 10 9 8 5 4 5 8 9 10 10 9 11 11 10 10 10 9 10 10 10 11 11 11 10 7 6 7 7 5 5 7 7 8 9 10 10 9 9 10 9 8 8 8 8 9 8 8 7 6 6 6 5 6 7 6 5 6 7 5 2 2 3 2 1 0 -0 0 -0 -1 -1 -1 -1 -1 -1
15 18 18 16 16 16 16 17 13 11 12 11 9 10 9 8 9 7 3 3 6 8 8 9 9 10 11 10 10 9 9 10 9 10 11 10 11 11 6 3 5 5 6 7 7 7 8 8 8 9 9 10 10 7 5 6 6 8 9 8 7 7 6 7 6 4 4 6 6 5 6 7 4 1 1 1 1 1 0 0 0 -0 -0 -1 -1 -1 -1 -1
16 19 18 16 17 16 17 16 9 6 10 11 9 9 8 7 8 8 6 4 6 7 7 8 9 9 9 10 9 8 8 10 10 10 11 10 10 10 4 0 1 2 5 8 7 5 6 7 7 8 9 9 8 4 3 4 5 6 7 6 6 6 7 7 7 5 4 4 4 4 5 5 2 -0 0 0 1 1 0 -0 -0 -1 -1 -1 -1 -1 -1 -2
18 18 18 16 16 16 17 16 11 9 10 8 7 7 6 7 9 9 8 7 8 8 9 9 9 9 9 8 9 9 9 10 10 10 10 9 8 6 2 -1 -0 2 5 7 6 5 5 6 7 8 9 8 7 5 3 3 5 7 6 4 4 5 5 5 5 5 5 5 5 4 5 5 2 -0 0 -0 -0 -0 -1 -1 -1 -1 -1 -1 -1 -2 -2 -2
16 15 16 16 17 19 18 16 14 12 10 8 9 9 7 7 8 9 9 9 8 8 10 10 8 9 9 7 8 9 9 10 11 10 9 9 8 4 0 -1 1 3 6 6 5 5 6 7 7 7 9 9 8 8 7 6 7 7 5 3 2 3 3 3 3 3 4 5 5 5 6 5 2 0 -0 -0 -1 -1 -1 -1 -1 -1 -1 -2 -2 -2 -3 -4
15 15 15 15 15 15 14 11 13 14 11 10 12 10 9 8 7 7 8 8 6 6 9 9 8 7 7 7 7 8 8 10 11 9 8 8 7 4 2 1 1 3 4 2 2 4 6 7 7 7 8 8 8 8 8 7 7 5 5 3 2 2 3 4 4 4 5 4 3 5 6 4 2 1 -0 -1 -1 -1 -1 -1 -1 -2 -2 -2 -3 -3 -4 -5
17 17 16 16 13 10 8 6 9 13 12 12 12 10 10 11 8 5 6 8 7 6 7 8 7 7 8 8 9 9 8 9 9 9 9 9 8 5 2 2 2 3 3 1 2 4 6 6 5 7 8 7 8 8 6 6 6 5 6 4 2 2 2 3 4 5 5 3 3 4 3 2 2 1 -1 -2 -2 -2 -2 -2 -2 -2 -2 -3 -3 -4 -5 -5
16 15 13 15 15 13 11 8 9 11 11 11 12 10 10 11 10 8 7 8 7 6 7 8 7 9 10 9 9 10 9 8 8 8 8 7 7 6 2 2 3 3 3 3 2 4 7 7 4 4 6 7 7 7 5 4 4 5 5 4 3 2 1 3 5 4 3 3 4 3 1 1 3 1 -2 -2 -3 -3 -3 -3 -3 -3 -3 -3 -4 -5 -6 -6
14 13 10 11 14 14 13 11 9 10 10 10 10 9 10 11 11 10 9 8 7 7 9 10 9 8 8 7 8 10 9 9 8 8 7 5 6 6 5 4 4 4 4 4 3 4 7 7 3 3 5 6 5 4 3 3 4 4 4 3 3 2 2 3 4 3 2 3 4 2 0 1 1 -0 -2 -3 -3 -3 -3 -3 -3 -3 -3 -4 -5 -6 -7 -7
11 12 9 8 11 11 9 8 8 10 11 10 10 10 10 11 11 10 8 9 10 9 9 12 11 8 7 6 7 9 9 9 9 8 7 5 5 6 7 6 5 4 4 5 3 2 5 6 3 2 4 6 4 3 3 3 4 4 2 2 2 2 2 2 2 1 1 3 3 1 0 0 -0 -2 -3 -3 -3 -3 -3 -3 -3 -3 -4 -4 -6 -7 -7 -8
13 14 11 10 10 8 7 7 8 12 12 10 11 10 8 10 11 9 7 9 12 11 9 10 10 8 6 6 7 9 8 8 8 7 6 5 5 5 6 6 5 4 5 5 3 3 5 5 3 2 5 7 5 3 3 3 3 3 2 1 1 2 2 1 2 1 1 2 2 0 0 1 -1 -3 -3 -3 -3 -3 -3 -3 -3 -4 -4 -6 -7 -8 -8 -8
11 11 11 14 13 8 8 8 8 13 13 10 11 11 9 10 9 8 8 8 9 10 9 9 9 7 6 6 7 8 7 6 7 6 5 5 5 5 5 5 4 4 5 4 2 3 5 4 3 3 6 7 6 5 4 2 2 3 3 2 2 2 2 2 2 2 1 2 1 0 1 1 -2 -3 -3 -3 -3 -3 -3 -4 -4 -4 -5 -7 -8 -8 -8 -9
11 10 10 15 14 8 8 10 10 12 12 9 9 9 10 10 7 6 10 9 6 7 7 6 7 7 7 8 8 7 6 5 5 4 3 3 3 3 3 3 3 4 4 3 1 1 2 4 4 4 5 7 6 5 3 2 4 5 3 1 1 1 1 1 2 2 1 1 1 1 0 -1 -3 -3 -3 -3 -3 -4 -4 -4 -4 -5 -7 -8 -9 -9 -9 -10
Height
821 822 821 821 821 821 821 821 820 819 819 818 818 817 817 816 815 815 814 814 813 813 812 811 810 809 808 806 806 805 805 804 804 804 805 806 806 806 805 804 803 802 801 800 799 799 799 799 799 799 798 800 804 805 805 807 809 807 812 820 821 826 825 818 820 822 817 812 819 828 830 825 822 827 828 827 827 828 830 830 830 831 833 834 833 833 834 835
822 822 822 822 821 821 821 821 820 819 819 818 818 817 817 816 815 815 814 814 813 813 812 810 809 808 807 806 805 805 804 804 804 805 806 807 806 805 805 803 803 802 801 800 799 799 799 800 800 799 800 802 806 806 805 808 809 810 819 821 818 820 818 815 814 816 817 813 818 825 830 827 822 825 826 824 826 829 828 828 830 830 831 834 834 834 835 836
822 822 822 822 822 821 821 821 820 819 819 818 818 817 816 815 815 814 814 814 813 812 811 810 809 808 807 806 805 804 803 804 804 806 807 806 806 805 804 803 802 801 801 800 800 799 800 800 800 800 802 804 808 808 806 809 810 813 820 817 813 814 815 819 818 816 819 817 818 823 830 830 825 826 826 823 826 829 827 824 827 826 827 831 834 835 835 837
822 822 822 822 822 821 821 820 819 819 818 818 817 816 816 815 815 814 813 813 812 812 811 810 809 807 807 805 805 804 802 804 806 807 807 806 805 804 803 803 802 801 800 800 800 799 800 800 799 801 803 805 810 810 808 809 811 815 816 810 811 818 814 815 819 819 822 822 818 822 828 827 825 827 825 824 825 825 824 823 823 822 823 828 834 835 835 836
823 822 822 822 822 821 821 820 819 819 818 818 817 816 816 815 814 814 813 813 812 812 811 810 809 808 807 805 805 803 803 807 809 807 807 806 805 804 803 802 801 801 800 799 799 799 799 800 800 802 804 806 809 809 810 813 814 813 814 812 815 820 812 813 822 822 824 824 821 823 823 822 826 827 825 825 823 822 824 826 825 824 824 827 831 834 835 836
823 823 823 822 822 821 821 820 820 819 818 818 817 816 816 815 814 813 813 812 812 811 810 810 809 808 807 805 805 803 804 810 809 807 807 806 805 804 803 802 801 800 800 800 800 799 799 800 800 803 806 808 809 809 811 816 816 810 812 816 820 820 813 817 823 822 824 820 818 820 820 824 825 824 829 827 822 825 829 829 829 827 827 827 829 832 835 836
824 824 823 823 822 822 821 820 820 819 818 818 817 816 815 815 814 813 812 812 811 811 810 809 808 808 807 805 805 804 806 809 808 807 807 806 805 804 803 802 801 800 800 799 799 799 800 801 801 805 807 808 810 811 813 816 816 812 811 813 819 822 818 821 824 823 824 818 818 823 821 823 820 821 829 826 825 830 830 830 829 828 829 829 831 834 835 837
824 824 823 823 822 822 821 820 820 819 818 817 816 816 815 814 813 813 812 811 811 810 810 809 808 807 806 805 805 806 808 808 808 807 806 806 805 804 803 802 801 800 800 799 800 800 801 801 803 807 807 808 810 811 815 815 813 813 812 813 820 823 821 824 826 824 824 821 823 823 820 822 822 825 826 824 828 833 830 829 830 829 830 831 833 836 837 839
824 824 823 823 822 821 821 820 819 818 818 817 816 815 814 813 813 812 811 811 810 810 809 808 808 806 806 805 806 808 809 808 808 807 806 805 804 803 803 802 801 800 800 800 800 799 801 802 803 804 804 809 810 810 815 813 811 814 813 815 818 819 822 826 825 823 822 823 823 820 818 823 829 828 823 825 832 833 832 831 830 830 832 834 836 838 839 840
824 823 823 822 822 821 820 820 819 818 817 815 815 814 813 812 811 811 810 810 809 808 808 808 807 806 806 805 807 809 809 807 807 806 806 804 804 804 803 802 801 801 800 800 800 800 800 801 803 803 803 808 810 812 816 812 812 816 816 817 818 818 823 825 822 822 823 822 821 817 818 824 829 826 820 827 834 834 832 831 833 833 835 838 838 840 841 841
824 823 822 822 821 820 820 819 817 816 815 814 813 812 812 811 810 810 809 808 808 808 807 807 806 806 805 805 808 810 808 807 807 806 805 804 803 803 802 802 802 801 800 800 800 800 800 800 802 803 803 807 810 813 816 814 815 817 817 816 817 819 822 823 821 822 822 819 821 819 819 825 826 823 826 833 837 836 833 833 836 837 839 841 841 843 843 844
823 823 822 821 820 820 819 817 816 815 814 812 811 810 810 809 808 808 808 807 807 806 806 806 805 805 805 805 807 808 807 807 807 806 805 804 803 802 802 802 801 802 801 801 800 800 800 800 801 802 804 806 809 812 812 816 818 818 818 812 812 815 815 820 820 822 821 816 822 821 816 822 824 827 835 838 839 837 835 837 840 841 843 844 844 846 846 848
823 822 822 821 820 819 818 816 815 813 812 811 810 809 808 807 806 806 806 806 806 805 805 805 804 804 804 806 807 807 806 807 806 805 804 803 802 802 802 801 801 801 800 800 800 800 800 800 800 802 806 806 808 811 812 818 819 816 818 814 811 810 809 818 822 821 820 817 824 820 810 818 827 833 838 840 839 836 837 842 844 845 846 847 847 848 850 852
823 822 822 821 820 819 817 816 814 813 812 810 809 808 807 806 805 805 805 805 805 804 804 804 804 804 805 807 807 806 807 806 805 804 803 802 802 801 801 801 800 800 800 800 800 800 799 800 801 803 807 809 810 812 812 816 817 814 816 817 819 811 805 816 824 819 815 817 823 817 809 816 827 836 840 842 840 835 840 848 848 848 849 850 851 851 853 857
823 823 822 821 820 818 817 815 814 813 811 810 809 807 806 804 804 804 804 804 804 804 803 804 804 804 806 807 807 807 806 805 805 804 802 802 801 800 800 799 799 799 799 800 799 800 800 800 801 803 809 812 812 811 811 813 815 816 812 812 821 818 806 813 825 823 816 817 821 815 812 819 831 841 843 844 842 838 844 850 850 851 853 852 854 855 856 860
823 822 821 821 819 818 817 815 814 813 811 810 808 806 805 804 803 803 803 803 803 803 803 803 803 804 807 808 806 806 806 806 805 804 803 803 801 801 800 799 799 799 799 800 800 800 800 801 806 811 811 811 811 808 810 812 812 818 816 808 814 816 810 810 819 828 824 818 818 815 813 820 835 845 845 846 845 842 846 852 854 853 855 855 856 858 860 862
823 822 822 820 819 818 817 815 814 813 811 810 807 806 805 804 804 803 804 803 803 803 803 804 803 804 807 807 807 807 808 807 806 805 804 803 802 801 799 799 799 799 799 799 800 800 800 803 810 812 811 814 815 809 811 812 806 813 819 813 815 818 815 811 812 825 829 819 817 819 818 827 845 851 848 849 847 846 850 853 856 856 857 859 859 861 863 864
823 822 821 820 819 818 816 815 814 812 811 809 807 806 805 805 804 804 805 803 803 803 803 803 803 807 809 808 810 811 809 807 806 806 804 802 801 800 799 799 799 799 800 800 801 801 801 805 809 808 810 814 814 809 809 810 806 808 812 811 815 820 821 816 811 822 827 819 819 820 819 831 850 854 850 852 850 849 854 856 858 859 860 862 863 865 866 867
823 823 821 821 819 818 817 815 814 813 811 809 807 806 805 805 804 805 805 803 805 806 808 810 809 813 814 811 813 812 808 808 807 805 804 802 801 800 800 799 799 799 800 801 801 803 805 805 808 806 807 809 810 811 809 809 810 810 813 814 814 817 819 817 816 827 831 820 819 824 825 837 852 855 854 855 854 853 856 859 860 861 863 865 866 868 870 871
823 823 821 820 819 818 817 815 814 813 811 810 808 805 806 808 808 807 807 808 813 815 816 817 816 816 814 813 813 811 808 807 806 806 804 802 801 800 800 799 799 799 801 804 802 808 811 805 807 809 809 813 816 820 819 819 819 816 817 817 818 819 816 815 819 831 835 821 823 835 838 849 857 857 859 857 855 858 859 861 862 865 866 867 869 871 873 874
823 822 822 820 819 818 817 815 814 813 812 810 807 807 812 816 815 814 814 815 818 820 818 818 818 816 814 814 814 812 810 808 807 807 804 803 801 799 800 800 799 799 807 813 808 811 811 805 811 819 823 827 827 829 827 822 821 818 817 817 819 821 817 821 825 831 834 821 828 842 840 853 863 859 862 860 858 861 863 864 864 867 869 870 872 873 875 876
823 822 822 820 819 818 816 815 814 813 813 810 809 812 817 819 818 819 820 818 818 819 818 818 818 816 815 815 814 814 813 811 808 806 805 804 801 800 802 803 802 804 811 814 809 809 809 809 820 830 834 833 830 831 825 820 821 819 821 820 818 821 819 825 830 832 833 821 826 838 838 854 866 862 864 863 864 867 866 867 867 868 871 872 874 875 876 878
823 822 821 820 819 817 816 815 814 814 812 811 812 815 818 819 819 820 820 819 818 818 818 818 817 816 815 814 815 814 814 816 814 809 808 805 805 807 807 806 807 809 811 810 808 809 809 814 828 836 835 829 824 827 824 820 821 820 823 820 816 823 821 817 823 829 833 829 829 833 839 857 865 861 867 866 866 870 868 869 870 871 873 874 876 877 878 879
823 822 821 819 819 817 816 815 814 814 813 813 814 816 818 819 819 819 820 823 821 818 818 819 819 818 817 816 816 815 815 819 818 813 811 809 810 810 810 812 810 809 814 816 813 811 812 823 837 836 832 827 820 822 823 818 818 821 824 820 816 823 822 819 825 827 829 833 836 832 830 849 863 861 866 869 866 869 870 871 873 874 876 877 878 879 880 881
823 822 820 819 818 817 816 815 815 815 814 815 816 817 819 818 820 819 819 824 823 819 818 819 819 818 817 817 816 817 818 819 818 816 814 814 812 811 813 817 813 809 815 820 817 812 817 832 838 829 826 827 820 819 822 820 819 819 823 827 825 825 824 825 828 826 821 821 834 833 814 830 864 868 865 868 868 870 873 873 875 877 878 879 880 882 882 883
822 821 820 819 818 817 816 815 816 816 815 816 817 818 819 818 820 819 819 825 824 821 820 818 819 819 817 818 818 819 818 816 817 817 815 815 814 813 813 816 816 814 817 821 820 818 824 834 835 826 822 823 820 819 825 828 820 815 825 835 833 829 828 827 828 825 820 817 831 836 815 822 856 868 866 869 870 873 875 876 878 880 881 882 883 884 884 884
822 822 821 819 819 817 816 817 817 816 816 818 818 818 818 819 819 819 821 827 828 826 823 819 819 820 819 821 820 818 818 817 816 817 817 815 815 815 812 814 816 816 822 821 815 821 828 827 827 825 821 820 818 819 828 831 819 815 832 838 832 831 829 829 830 826 827 829 831 837 830 824 838 858 869 871 870 873 876 878 880 881 883 884 884 885 885 885
822 822 820 819 819 817 817 818 817 817 818 818 818 818 818 818 819 819 821 830 833 828 825 822 819 820 821 822 821 820 822 823 817 815 817 816 815 814 811 815 817 817 825 820 809 822 831 823 822 823 820 819 821 823 832 833 822 823 838 840 837 837 833 835 834 831 841 837 821 831 841 825 828 860 874 868 870 873 875 879 881 883 885 885 886 886 886 886
822 821 820 820 819 818 818 818 818 819 818 818 818 818 819 818 819 820 823 832 834 827 828 824 819 823 826 822 822 825 825 825 823 819 817 817 815 815 814 819 821 818 824 822 813 821 831 830 831 828 822 822 825 831 838 833 826 833 844 844 844 844 842 843 836 835 842 830 816 832 843 823 824 861 876 866 867 871 872 879 881 883 886 885 887 886 886 887
822 821 821 820 819 819 818 818 819 819 818 818 818 818 818 818 820 823 828 834 833 830 829 825 826 834 833 824 822 828 828 827 831 825 819 820 818 817 822 824 823 819 822 824 820 825 835 837 838 834 830 831 834 839 844 840 836 841 843 837 839 842 844 845 844 842 832 818 824 841 846 830 822 851 872 866 869 872 870 876 881 884 886 885 887 887 886 887
822 821 821 820 819 819 818 819 819 818 818 817 817 818 818 820 823 828 835 837 834 833 831 831 837 840 839 837 832 832 831 829 833 828 821 825 824 821 823 824 824 819 816 820 821 826 834 833 834 838 839 840 837 837 844 847 844 841 834 827 825 829 835 835 837 837 818 811 833 847 849 838 823 842 869 870 875 878 869 872 879 883 885 886 886 886 887 887
821 821 821 820 820 819 819 819 818 818 818 816 817 818 818 822 828 836 840 836 834 839 840 842 845 843 845 847 840 840 839 833 834 836 834 835 836 838 839 838 838 825 818 826 825 822 825 829 835 839 841 843 834 827 833 840 838 831 827 823 817 819 825 819 820 830 822 819 841 851 845 837 834 856 878 878 879 878 870 872 878 882 884 885 886 886 886 887
821 821 821 820 820 819 819 819 818 817 817 816 818 818 819 823 834 848 849 839 839 847 850 849 849 849 849 841 838 846 845 837 836 840 842 841 839 846 851 853 851 835 828 836 834 827 822 825 834 832 834 842 835 824 823 827 829 826 827 826 819 824 829 822 827 839 831 826 846 856 844 833 841 867 884 883 882 879 876 878 879 882 884 884 886 886 886 887
822 821 821 821 820 819 819 818 817 817 816 817 817 817 821 829 843 854 850 845 851 853 853 856 851 848 846 840 844 851 843 837 841 839 838 838 837 842 846 848 851 845 839 838 842 843 830 821 828 829 830 837 837 834 833 831 832 836 841 835 823 826 831 829 832 832 829 836 848 849 840 833 840 863 883 885 883 882 880 881 882 883 885 885 886 886 886 887
821 821 821 821 820 819 819 818 817 816 816 817 818 821 829 840 851 855 851 853 857 854 854 860 853 841 839 843 851 855 845 839 842 841 837 840 844 848 849 849 853 853 844 838 846 852 837 824 831 838 840 840 837 842 846 837 831 841 848 835 827 833 834 838 847 851 853 856 850 843 846 859 867 874 884 884 882 884 883 883 884 883 885 886 885 886 886 886
821 821 821 820 821 819 817 817 816 815 816 816 819 831 843 850 854 856 857 859 861 861 855 852 848 840 837 842 846 850 850 845 843 840 840 847 852 853 854 855 859 858 849 844 848 849 838 827 832 840 842 843 843 845 847 840 830 836 840 833 840 849 841 839 854 868 869 855 845 846 849 864 873 873 881 883 881 885 885 884 886 885 886 887 885 886 886 885
821 821 821 821 820 819 817 816 815 815 817 816 824 842 855 858 860 862 865 865 866 869 858 845 847 848 846 845 841 843 847 845 844 841 840 848 851 852 855 857 860 862 859 856 852 852 848 834 831 837 834 840 853 848 844 847 840 834 835 837 848 852 846 845 846 851 855 846 844 853 853 852 850 857 878 885 880 882 885 884 887 887 887 886 885 886 885 885
821 821 821 821 820 819 816 815 815 816 817 823 838 854 860 862 866 869 870 869 868 867 858 848 850 854 854 851 845 849 850 841 841 845 844 845 848 852 857 856 859 864 865 862 852 854 858 840 831 840 838 840 851 845 836 845 847 840 839 844 846 840 839 846 845 843 852 855 851 857 865 858 847 854 871 875 873 880 883 884 886 885 885 885 885 885 884 884
820 821 821 822 820 818 817 816 817 816 817 830 847 856 861 864 868 873 873 872 870 864 857 858 860 857 857 857 852 855 857 848 848 850 847 845 847 854 860 859 859 863 866 865 856 855 860 847 833 838 843 840 840 838 836 840 846 844 843 846 846 845 847 851 853 853 854 857 857 858 857 850 852 864 866 862 869 877 880 884 885 883 884 885 884 885 884 883
821 821 822 822 819 819 819 815 817 821 827 845 855 857 864 866 867 875 877 873 869 864 860 863 865 858 856 860 860 860 861 857 856 854 849 850 850 853 864 867 861 862 865 864 861 858 858 853 841 835 839 839 836 842 847 846 847 843 841 845 846 850 857 857 860 865 858 853 861 867 855 846 860 875 870 865 871 875 878 882 882 883 884 884 884 884 883 882
821 822 823 822 819 819 818 818 831 843 847 857 862 862 867 868 866 872 878 876 871 867 866 866 865 862 859 859 861 865 864 858 859 858 852 853 850 850 866 876 870 867 864 858 859 862 858 856 853 844 839 836 838 852 858 854 854 848 843 850 853 853 856 854 858 871 870 861 864 869 857 850 865 878 876 875 874 875 879 881 881 884 884 883 884 883 882 882
822 826 826 822 819 819 818 828 853 862 855 858 864 866 869 869 867 868 873 875 872 869 869 867 866 867 865 862 863 867 866 858 857 856 852 855 855 855 870 882 880 875 867 859 863 868 864 862 861 853 845 844 850 861 865 861 860 855 851 858 860 857 856 854 854 863 871 870 872 875 865 859 871 881 879 878 877 878 881 881 883 885 883 883 884 882 882 882
826 827 825 822 821 819 821 834 854 860 860 866 871 871 872 871 868 867 869 870 869 868 866 865 867 866 865 867 866 865 864 858 855 854 854 858 861 866 878 884 881 876 868 863 865 868 867 864 861 853 846 849 853 858 863 863 858 853 856 865 866 862 863 864 865 868 868 866 868 871 864 860 872 881 880 880 881 881 883 884 884 884 883 883 882 881 882 881
830 829 827 824 819 817 825 838 847 853 863 868 866 867 871 872 869 866 867 868 869 869 864 863 868 866 866 872 869 865 864 856 852 856 860 859 863 873 882 883 879 873 866 866 867 866 862 860 862 857 849 847 848 849 852 853 853 854 862 873 876 874 873 873 877 877 868 862 864 862 856 860 873 881 881 882 883 883 884 884 883 883 883 882 882 882 882 882
830 830 831 829 823 823 838 850 849 850 860 862 860 865 868 868 872 872 870 870 874 874 867 865 870 870 870 873 869 867 867 858 853 859 863 862 864 873 880 880 879 874 871 876 875 869 864 863 863 859 856 856 854 852 853 852 856 862 865 873 879 878 874 869 871 870 863 868 872 861 855 864 874 879 881 883 885 884 884 884 883 884 883 882 882 882 882 883
830 832 834 833 833 838 851 862 856 851 857 857 858 867 867 862 870 877 874 870 873 876 871 868 871 870 868 867 863 862 865 864 862 861 862 860 861 870 878 878 877 875 874 877 876 871 868 869 870 864 859 859 854 853 859 862 863 862 861 868 878 881 881 874 869 866 866 873 873 866 872 876 871 876 884 887 887 886 885 885 884 884 883 882 882 882 882 883
833 840 846 841 839 844 851 860 860 857 860 860 859 868 869 863 866 870 871 870 873 874 871 869 870 867 863 866 864 861 864 867 867 865 866 867 866 870 877 878 876 874 874 875 875 873 865 863 875 876 864 860 857 857 866 871 869 865 863 869 877 881 882 875 867 867 872 872 867 871 885 881 869 875 887 888 888 888 886 886 884 883 882 882 882 882 883 883
838 847 856 850 847 851 853 857 863 863 863 864 867 872 869 865 865 865 866 870 872 872 867 863 867 869 870 872 868 863 862 863 863 865 869 874 873 868 869 873 873 873 873 872 874 874 865 862 878 884 869 863 867 868 871 873 869 868 870 873 876 880 879 873 870 876 879 872 864 872 884 881 874 881 889 889 888 887 886 885 884 882 881 881 882 883 883 883
844 848 856 856 854 862 865 866 869 864 861 865 868 871 869 865 865 869 872 869 864 868 867 858 861 870 875 876 871 865 864 862 862 866 870 874 876 871 867 868 871 874 872 870 875 879 870 866 881 887 871 863 869 874 875 873 868 871 878 880 880 881 879 877 876 881 883 874 870 878 883 880 881 886 889 888 887 886 885 883 882 881 880 880 882 883 882 882
841 842 850 854 858 867 871 872 868 859 861 867 864 868 874 869 865 871 876 869 859 862 868 863 863 871 875 877 873 866 868 869 867 870 874 875 875 874 871 869 872 875 872 872 878 879 869 869 883 887 868 856 864 872 873 872 871 873 878 882 882 880 881 881 879 880 882 876 875 882 881 877 883 889 889 887 885 885 883 881 880 880 879 880 883 883 882 881
839 841 844 845 855 868 868 869 869 858 858 867 865 868 873 868 870 874 872 872 868 864 868 868 868 873 876 876 873 868 870 874 871 872 875 876 875 876 875 875 878 877 874 878 882 877 871 874 882 881 864 853 859 864 867 875 876 873 875 880 880 878 878 879 878 878 879 876 876 880 876 875 884 888 886 885 885 884 882 880 879 878 879 882 883 883 882 882
840 842 842 841 853 870 869 867 867 860 861 872 872 872 870 868 878 878 866 868 876 873 873 874 872 872 870 868 869 870 873 876 875 876 878 878 879 880 879 880 881 879 877 881 887 888 884 877 876 879 868 854 855 862 870 874 863 859 873 883 882 881 881 879 878 877 878 879 878 876 876 881 888 888 886 885 884 883 882 880 878 879 881 884 884 883 882 882
Wind_Speed
4 4 4 4 4 5 6 7 8 9 9 9 10 11 12 11 9 9 9 9 9 11 12 13 13 13 13 13 13 11 11 10 5 5 6 6 8 10 12 13 11 11 12 10 7 4 4 5 7 9 4 2 4 2 2 3 2 3 3 2 3 3 4 6 7 7 4 1 3 4 5 5 2 2 2 0 3 3 1 2 2 1 3 2 1 2 11 17
3 2 2 3 4 5 6 7 8 9 10 10 10 11 12 11 9 8 8 8 9 10 12 13 13 13 13 13 13 11 9 7 6 9 8 7 9 10 11 13 10 9 12 10 8 6 4 4 5 6 5 2 2 2 2 2 3 3 3 2 4 5 5 5 7 6 3 2 3 2 3 4 3 3 2 1 2 3 1 4 3 2 1 3 4 9 16 18
2 2 3 4 4 6 6 7 9 9 9 10 11 12 12 11 9 8 7 7 8 10 12 14 13 13 13 13 13 11 8 4 4 5 7 8 9 11 12 13 10 9 11 8 6 6 3 1 1 4 4 1 1 2 2 2 1 2 3 2 5 5 4 4 5 5 3 3 4 2 2 3 3 1 2 3 1 1 3 4 2 5 7 4 4 11 16 17
3 3 3 4 5 6 7 8 9 9 10 11 12 12 11 10 9 7 7 7 8 10 12 14 14 14 14 13 12 10 6 5 3 3 7 9 10 11 12 12 11 10 10 6 4 4 3 3 4 5 3 1 3 2 0 1 0 1 3 4 5 3 2 3 5 5 3 2 4 5 4 2 3 1 1 4 2 3 4 5 6 7 7 7 5 9 15 16
4 4 5 5 6 7 8 9 9 10 11 12 12 12 11 10 8 7 7 7 9 11 12 13 13 13 14 12 11 8 5 4 1 4 8 9 11 12 12 11 11 10 8 4 3 3 4 4 5 6 3 0 2 2 1 1 1 1 3 5 4 3 1 1 3 4 3 3 5 6 4 2 1 1 2 5 4 4 3 2 4 6 4 7 8 10 13 13
6 6 6 6 7 7 9 9 10 11 11 12 11 12 11 10 8 7 7 8 9 11 12 13 12 12 13 11 9 6 4 2 2 4 8 10 10 11 11 11 10 9 5 3 3 3 3 5 5 3 3 1 1 2 2 3 1 1 3 1 2 3 1 1 1 3 3 6 5 5 3 2 3 2 2 4 5 4 3 3 4 4 3 7 11 12 10 9
7 7 8 8 8 8 9 10 10 10 11 11 11 11 11 10 9 7 7 8 9 10 11 12 12 11 12 11 6 4 5 1 3 5 8 10 10 10 9 9 9 7 4 4 5 2 3 5 2 3 4 2 2 3 2 3 3 1 3 2 1 2 1 1 1 2 3 5 4 4 3 3 3 3 1 2 4 6 7 6 3 1 4 7 10 8 6 6
8 9 9 9 9 10 10 10 10 11 11 11 12 11 10 9 8 8 7 7 8 8 9 11 12 10 11 8 2 4 4 1 4 6 8 9 9 9 7 7 8 6 4 7 5 2 3 3 1 4 3 2 4 3 0 2 3 2 4 2 1 1 3 2 1 2 3 2 2 4 4 3 4 2 2 1 3 7 7 5 3 6 9 8 7 5 5 7
9 9 10 10 9 10 10 11 12 12 12 12 12 11 10 10 8 8 7 7 7 7 7 10 12 10 9 5 4 4 2 1 5 7 8 10 9 8 6 5 8 5 5 7 5 3 2 1 3 3 3 2 4 3 0 1 2 3 4 1 2 1 3 1 2 1 2 1 3 4 1 1 3 1 2 0 6 8 5 6 6 7 9 8 7 6 7 8
10 10 10 9 9 10 11 12 13 14 14 13 13 12 11 10 9 8 8 8 7 7 7 9 12 10 6 4 6 4 1 1 6 7 9 11 10 6 4 5 7 5 5 5 5 5 2 4 4 3 5 2 3 3 1 3 2 3 4 2 1 1 2 0 2 2 1 1 3 4 1 1 2 0 1 2 8 8 5 9 8 9 8 7 6 6 9 10
10 10 10 9 10 11 12 14 15 15 14 13 13 12 12 11 10 9 8 8 7 7 8 9 12 10 4 3 6 2 1 2 6 9 11 11 9 5 3 6 6 5 4 4 4 4 2 7 8 5 2 1 3 2 1 4 3 3 4 1 3 2 2 1 0 1 1 1 3 4 4 2 4 2 1 6 8 6 8 10 9 10 7 6 7 6 10 13
10 11 10 10 11 13 15 16 16 16 15 14 14 14 13 12 11 9 8 8 8 8 9 10 12 8 3 4 4 2 1 3 6 12 12 9 9 4 2 7 7 3 1 2 2 2 2 7 10 5 1 3 3 1 2 3 3 2 4 1 5 4 3 2 1 2 1 2 3 3 2 3 4 3 5 8 6 5 10 11 9 9 7 7 8 7 9 14
11 11 10 10 13 15 16 17 17 16 16 15 16 15 14 13 12 10 9 8 8 9 9 10 11 5 3 3 1 1 2 2 5 13 13 9 10 3 1 7 8 2 1 2 2 2 2 7 9 5 2 4 2 1 3 3 2 1 1 1 4 6 3 2 1 2 1 2 2 1 1 3 1 3 8 9 4 5 11 9 7 8 8 8 8 8 9 15
11 10 10 11 14 16 17 17 17 17 16 16 17 17 16 14 11 10 9 8 8 9 10 9 7 3 3 1 1 2 2 1 7 16 14 10 11 3 2 8 7 2 2 3 4 4 5 7 8 6 3 3 1 2 4 5 2 0 1 1 1 2 4 3 1 1 2 1 1 2 2 4 2 7 10 9 4 7 10 7 6 7 8 8 8 10 10 13
11 9 10 13 15 17 17 17 17 17 17 17 18 18 16 13 10 8 7 7 7 8 7 5 3 3 3 1 0 2 3 4 12 18 13 12 13 5 6 9 2 2 3 5 5 6 7 8 6 5 1 2 2 3 3 4 3 2 1 3 2 1 4 5 2 2 2 1 4 4 1 3 1 8 10 7 4 10 10 6 7 8 9 9 8 11 10 12
10 9 11 14 16 17 17 17 17 18 17 17 20 18 13 10 8 6 5 5 6 5 3 3 2 3 4 1 1 3 3 6 15 14 9 13 12 7 10 7 3 3 4 7 8 7 6 5 4 2 2 1 3 4 2 3 3 3 1 3 3 1 3 4 3 3 2 1 4 3 2 2 1 7 9 7 4 10 11 7 8 8 9 9 8 9 9 10
9 9 12 15 16 17 17 17 16 19 18 18 20 16 8 8 7 6 6 6 5 2 4 3 1 3 3 2 2 4 5 10 15 11 9 14 11 7 8 3 3 3 5 6 5 3 2 4 1 0 2 2 2 4 3 3 3 3 2 1 3 2 2 3 2 4 4 1 1 3 1 2 2 6 8 7 4 10 10 7 8 7 7 8 8 9 9 9
8 9 13 15 16 17 17 17 15 19 20 18 19 12 5 6 5 7 9 7 2 2 5 4 4 4 1 4 2 6 12 15 14 9 12 15 9 6 5 2 1 3 4 3 1 0 2 3 2 1 3 3 2 5 2 4 3 2 2 1 3 2 2 3 3 2 5 2 1 1 0 0 5 6 6 7 5 9 9 6 7 7 8 8 8 9 9 10
8 10 13 14 16 17 17 17 14 17 20 19 17 7 3 5 2 5 12 10 3 2 1 3 4 2 4 5 3 11 16 12 7 8 16 17 9 4 3 3 2 3 3 1 1 2 1 2 3 1 1 3 2 4 5 6 4 2 3 3 3 3 3 4 4 3 2 2 1 0 1 2 5 6 6 6 5 8 7 7 7 6 8 7 8 8 9 10
7 11 13 15 16 16 18 17 13 16 19 19 14 4 3 6 3 3 10 10 3 2 2 2 0 1 3 4 6 14 14 5 1 8 19 19 10 4 2 4 4 4 3 1 2 2 2 2 1 3 4 5 5 4 3 3 3 3 2 2 3 3 4 4 2 4 1 1 1 2 4 4 4 4 5 4 5 8 6 7 7 6 7 7 8 9 9 10
8 12 14 15 16 16 17 16 13 14 17 17 15 7 2 2 3 3 5 4 1 0 2 2 3 2 4 4 7 11 7 2 2 8 20 19 7 2 2 4 5 3 2 1 2 2 3 1 3 4 5 4 2 2 4 4 3 3 2 2 2 3 4 3 1 4 2 1 1 3 5 5 4 4 4 4 5 5 4 6 7 8 8 7 8 9 9 8
9 12 14 15 16 16 17 16 12 13 15 16 15 9 4 3 2 1 1 2 3 1 3 2 1 3 4 2 5 7 3 4 6 8 20 20 7 2 3 5 5 0 3 2 2 4 4 1 5 4 2 1 3 3 4 4 3 3 1 1 2 3 3 3 2 4 2 0 2 2 5 3 3 4 4 5 5 4 3 5 5 7 8 7 7 7 8 8
10 13 14 15 16 16 18 15 10 13 16 16 13 8 4 4 4 2 2 2 3 3 3 3 2 4 5 1 5 8 4 4 4 7 17 16 5 3 2 5 4 1 5 4 1 1 2 3 3 1 1 2 3 3 4 4 2 1 2 1 3 2 1 2 3 4 2 1 1 3 4 3 1 4 5 5 4 4 5 6 5 5 6 6 6 5 6 8
11 14 14 15 16 16 17 12 9 13 14 13 13 8 4 3 3 2 2 3 2 3 1 1 1 1 2 1 6 7 2 1 2 6 13 10 3 2 3 3 3 2 3 2 5 3 2 3 1 2 2 1 0 3 4 2 3 2 3 3 3 2 1 4 3 4 2 2 2 3 2 1 1 2 4 3 4 5 5 6 6 5 5 5 6 6 6 6
12 14 15 16 16 17 16 8 8 12 8 8 9 6 3 1 1 1 2 3 2 3 2 1 1 1 2 2 6 5 1 0 2 5 8 7 3 2 2 0 2 3 2 1 4 2 2 2 1 2 3 3 1 2 1 3 1 4 3 4 5 3 2 2 3 4 3 3 1 2 1 2 1 2 2 2 4 5 4 5 6 4 5 5 6 6 6 5
13 14 15 16 15 17 12 4 7 11 4 5 7 4 1 0 0 1 2 4 1 2 4 1 1 4 5 4 6 2 1 1 2 3 5 5 2 1 1 2 2 3 2 2 3 1 1 2 2 2 3 5 4 1 1 3 3 2 2 4 4 4 2 1 3 2 1 1 2 2 1 3 1 1 2 2 4 4 4 5 4 3 4 5 5 5 5 5
13 14 15 16 16 16 8 1 7 7 3 3 6 4 1 1 1 1 2 5 2 1 2 2 1 4 6 6 6 3 1 5 2 1 4 5 4 1 2 3 1 2 1 2 2 1 1 2 4 4 4 5 4 1 1 3 4 2 2 4 3 2 1 1 2 2 2 2 2 2 2 2 3 0 1 2 5 4 4 5 4 3 4 4 4 4 4 4
13 13 14 14 15 14 7 3 5 4 3 3 4 3 1 2 1 2 5 4 2 1 0 3 2 3 5 6 6 5 1 6 2 2 5 6 5 2 3 1 2 0 2 1 1 2 0 1 3 3 4 3 1 1 2 3 1 3 2 3 1 1 2 3 4 2 0 2 3 3 2 1 3 0 1 1 3 3 2 4 3 3 4 4 4 4 4 3
12 12 12 13 11 10 7 5 6 5 4 3 2 2 1 2 2 3 5 2 1 1 1 2 2 3 7 7 6 5 3 4 2 5 8 6 5 4 3 1 5 3 2 2 2 3 0 0 0 2 3 0 2 2 2 3 1 1 4 3 3 4 3 3 3 3 2 2 3 4 1 1 3 0 1 1 2 2 3 2 2 3 3 3 4 3 3 3
11 10 11 11 9 9 6 5 8 7 5 4 1 0 2 2 4 5 3 0 1 2 1 2 3 4 8 7 5 6 4 3 3 5 6 3 5 7 3 1 5 5 2 4 2 2 2 1 1 2 2 2 2 1 1 2 1 2 4 3 3 4 3 3 2 3 4 2 4 5 2 2 1 1 2 2 1 2 4 3 2 4 4 3 3 3 3 3
10 9 9 9 9 10 5 4 9 8 6 5 1 2 2 2 4 6 2 1 1 3 3 4 4 4 8 6 4 6 5 5 6 6 6 4 6 8 5 3 4 4 4 5 2 3 3 3 1 1 1 0 1 1 1 1 1 3 2 2 2 3 3 3 4 3 3 2 4 4 2 2 1 2 1 1 3 3 5 6 5 5 4 3 3 2 2 3
7 6 7 8 10 12 8 5 7 7 6 2 3 4 4 2 4 2 2 4 2 3 2 2 4 4 5 3 2 5 4 5 5 5 3 3 5 5 5 3 2 4 5 4 4 5 2 1 2 2 1 1 1 1 3 3 4 3 3 4 3 4 4 3 3 2 1 3 2 1 1 1 2 1 2 5 6 5 2 5 5 6 5 4 3 2 2 2
6 5 6 8 11 13 11 8 7 7 5 1 4 4 6 5 2 1 3 3 2 2 1 1 4 4 3 3 4 5 3 3 5 4 1 1 4 3 3 2 2 2 2 2 3 5 4 4 3 3 1 1 2 2 2 3 4 4 2 3 3 2 3 3 3 2 3 3 2 2 2 1 2 1 2 5 5 3 3 6 5 5 5 4 3 2 2 1
4 3 5 8 12 15 15 11 7 5 2 3 3 4 7 4 1 1 3 3 1 3 2 0 5 5 2 2 3 4 2 2 4 5 3 3 5 3 4 5 5 3 1 2 2 2 2 4 3 2 2 2 3 2 1 1 2 2 2 3 2 2 1 3 3 2 4 4 3 3 1 2 2 2 3 3 2 3 5 5 4 4 4 3 3 2 1 1
3 2 4 8 12 17 18 13 8 4 1 4 6 6 5 1 3 0 2 4 2 4 3 1 3 4 3 3 3 2 1 2 4 5 4 4 3 2 3 4 5 3 2 2 1 0 1 5 5 2 2 2 3 1 2 3 2 1 1 3 2 2 3 1 2 3 2 2 2 2 2 2 1 1 2 2 3 4 4 4 4 4 3 3 2 0 1 1
2 2 2 7 13 19 19 12 7 3 2 5 8 5 2 2 2 2 1 2 1 3 5 5 4 4 4 4 4 4 1 1 3 4 3 2 1 1 1 2 2 3 3 2 1 1 2 5 4 2 2 3 2 2 1 2 0 0 1 1 1 2 5 3 1 1 3 1 2 1 1 2 1 0 1 2 3 2 2 2 3 3 2 2 1 1 2 2
1 2 1 5 16 22 17 9 4 2 4 7 7 2 2 2 1 2 1 1 0 0 3 4 3 3 3 3 4 6 4 2 2 3 2 1 0 1 2 1 0 2 1 1 1 1 1 4 5 2 1 1 1 0 3 2 1 2 1 2 2 1 4 3 1 3 4 0 2 1 1 3 2 1 2 0 2 2 2 2 2 2 1 1 0 1 2 3
1 2 2 5 19 22 12 6 3 4 6 7 5 2 1 0 0 1 1 1 0 1 4 2 2 2 0 1 3 6 5 3 4 3 2 2 1 1 1 2 1 1 2 1 1 0 1 3 6 1 1 3 2 2 3 3 2 3 1 2 2 2 0 1 2 1 2 2 3 3 3 2 1 2 3 4 6 5 4 2 2 1 1 0 1 2 3 3
2 2 1 7 21 19 7 4 4 5 7 6 3 1 0 0 1 1 1 1 1 2 2 0 1 2 0 1 2 4 3 2 3 3 2 1 2 2 2 1 1 1 2 1 1 1 1 0 4 4 2 2 3 3 3 5 4 4 2 2 2 3 3 0 1 1 1 1 2 4 4 2 2 3 4 5 6 6 4 3 2 2 2 1 2 2 3 3
2 2 1 11 23 13 4 8 8 7 6 3 3 1 1 1 1 1 1 1 1 1 1 1 1 2 2 1 1 2 2 1 1 1 1 1 1 2 2 1 2 3 3 2 2 1 1 1 3 5 3 2 2 2 2 2 2 2 3 4 3 1 0 0 1 1 1 1 1 2 4 4 2 0 2 5 3 4 5 3 2 2 2 3 3 3 3 3
3 3 2 15 21 5 4 11 8 5 4 3 1 1 1 1 0 2 2 1 0 1 1 2 3 0 1 2 2 1 1 2 1 0 1 1 2 2 2 1 1 3 3 4 3 1 1 1 2 4 5 2 2 3 2 3 3 2 2 2 1 0 2 2 2 2 2 1 3 1 3 5 2 1 2 3 1 4 4 4 2 2 3 3 4 4 4 4
5 3 4 17 15 2 6 8 3 2 4 2 2 1 1 2 1 2 1 1 1 0 1 2 1 0 1 1 2 1 1 2 1 1 1 1 0 1 1 1 2 2 1 1 2 1 1 3 1 4 4 3 5 4 2 1 2 3 2 2 3 2 3 4 2 3 1 1 2 3 1 4 2 1 2 2 3 3 3 3 1 2 3 3 4 4 4 4
3 2 5 18 9 5 8 6 2 4 3 0 0 1 1 1 1 1 1 1 1 0 2 1 0 1 1 1 1 1 1 2 2 1 1 2 1 1 0 2 2 1 1 0 2 1 1 2 2 4 4 4 5 3 2 2 3 3 3 2 2 1 2 4 5 3 1 2 1 2 2 4 2 1 2 2 3 3 2 1 1 2 3 3 4 4 4 3
2 3 4 17 10 4 5 4 2 3 2 1 2 2 2 1 1 2 1 2 2 1 1 1 0 1 0 1 1 2 1 1 2 1 1 0 1 1 1 1 2 1 2 1 1 2 1 1 1 3 5 6 6 5 5 4 3 2 2 2 2 3 4 3 2 2 0 3 3 3 3 4 1 1 2 3 3 3 2 2 2 3 3 3 4 4 3 3
3 1 3 13 18 11 4 3 5 4 1 1 4 3 3 2 1 1 1 0 1 1 1 1 0 0 1 0 1 1 1 1 2 2 2 0 2 0 2 1 2 1 0 2 1 1 1 1 2 3 2 2 4 4 4 3 3 2 1 3 3 3 4 1 0 3 0 3 2 3 4 3 1 1 2 3 3 3 3 3 3 3 4 4 4 3 2 2
3 3 3 8 12 10 3 1 4 5 3 3 3 3 3 2 1 1 2 1 1 1 0 1 0 0 1 3 3 2 2 1 1 2 2 2 3 2 1 1 1 1 2 2 1 3 2 0 1 4 5 4 5 6 3 1 2 3 4 3 3 3 3 3 2 1 2 1 1 3 4 3 5 2 3 3 3 4 4 4 5 5 5 5 4 3 3 2
3 2 2 2 4 5 4 4 5 3 2 3 3 2 3 3 3 1 1 1 1 0 0 1 1 2 2 3 3 2 3 3 2 1 1 2 4 3 2 0 1 3 3 1 1 3 3 2 2 2 5 6 7 6 3 3 1 4 3 2 2 3 3 4 2 3 3 2 4 4 3 3 8 3 2 3 4 4 4 5 6 6 6 5 3 3 3 2
3 2 1 0 1 2 3 3 4 5 4 3 3 1 2 3 3 1 1 1 1 0 0 1 3 3 1 1 1 2 4 5 3 1 0 1 3 4 3 1 2 4 2 2 2 3 4 1 1 1 5 7 6 6 3 1 3 3 0 1 1 1 2 4 4 4 4 2 5 4 1 5 6 1 2 3 3 4 5 5 6 7 6 6 5 4 3 2
3 3 0 2 2 3 0 2 2 5 5 4 2 1 2 3 3 1 2 2 3 2 1 1 4 4 2 2 2 0 2 2 3 3 1 1 2 3 3 1 2 3 4 4 3 1 3 2 1 1 5 7 4 4 1 1 1 1 3 1 1 2 4 4 3 3 4 4 6 3 5 7 4 1 2 4 4 4 5 6 7 7 7 7 6 4 3 3
2 3 1 3 4 2 1 2 2 4 4 3 3 1 1 1 2 3 1 1 2 3 2 2 5 5 1 3 3 1 3 3 3 5 2 0 3 1 0 1 1 4 5 3 3 2 1 2 1 2 4 7 4 3 1 1 1 2 3 2 2 2 2 1 1 1 1 4 6 4 6 6 2 1 3 5 4 4 7 9 8 7 7 7 5 4 5 5
4 3 4 5 3 3 2 2 3 4 3 3 2 0 1 1 1 2 2 2 2 2 1 1 4 4 1 2 3 4 5 5 5 7 5 3 2 2 1 1 1 3 5 2 3 4 3 2 2 4 3 6 4 5 5 2 4 4 4 5 4 3 1 1 2 1 2 4 7 5 5 4 2 2 5 5 5 7 10 10 9 8 6 4 3 5 6 6
5 3 3 6 3 3 2 2 3 4 2 1 0 1 2 2 1 1 1 1 1 1 2 2 2 1 2 2 2 4 4 5 5 5 3 3 1 1 1 0 2 1 1 2 2 2 2 2 1 3 2 5 5 7 6 4 5 2 3 2 2 1 1 2 3 4 3 3 4 4 3 3 2 5 7 8 8 9 9 8 8 8 4 2 3 6 6 7
Wind_Direction
77 73 65 53 34 23 19 17 16 9 4 1 3 4 360 355 350 351 351 353 354 353 352 349 347 345 346 345 344 339 343 354 8 42 49 24 354 343 340 339 341 349 352 350 352 358 7 16 3 15 51 59 15 345 5 20 44 57 100 136 210 194 199 189 181 195 179 198 192 199 202 161 177 226 206 6 23 22 33 318 286 331 41 81 19 130 147 153
73 65 40 20 9 9 9 7 6 3 2 359 358 356 354 351 345 347 350 354 356 356 355 352 351 348 347 346 342 339 340 357 52 64 44 12 352 341 336 339 338 344 351 354 5 25 39 354 345 26 47 47 359 359 16 356 45 87 119 160 222 199 210 199 175 190 172 129 159 194 205 178 185 171 153 198 333 10 219 289 325 269 269 77 91 136 148 156
44 27 8 2 1 4 2 360 359 360 1 358 354 350 350 348 343 344 347 351 354 355 354 354 354 351 351 344 339 337 332 4 65 48 17 5 351 341 340 342 339 337 344 352 4 20 54 25 18 53 49 45 336 7 51 11 12 151 130 196 241 211 223 229 183 192 194 140 137 162 169 183 234 170 155 185 164 24 208 243 225 233 234 168 135 149 154 160
35 21 10 4 3 3 0 359 359 360 359 355 352 351 350 349 345 340 341 344 345 348 347 350 353 353 351 343 343 336 332 38 52 333 1 1 350 347 346 345 344 338 336 346 3 21 66 88 71 65 67 357 327 4 102 320 338 157 151 199 232 195 215 227 197 197 192 159 140 138 124 183 240 179 149 152 143 291 241 239 218 230 222 172 174 166 161 163
38 27 18 13 9 7 5 4 1 359 356 353 352 351 350 349 345 337 334 333 335 339 340 344 349 351 350 345 345 335 352 46 338 332 5 358 353 351 349 350 349 343 343 356 19 55 78 75 63 55 59 353 336 17 288 310 84 153 204 199 185 162 205 241 197 188 156 105 104 125 140 175 169 123 161 162 189 254 233 274 251 249 224 169 172 168 163 165
45 37 32 25 19 15 9 5 1 357 353 351 349 347 348 346 342 333 325 324 327 333 334 338 342 346 349 348 342 347 41 58 310 359 2 356 357 351 354 354 352 354 2 17 23 66 71 44 52 62 54 32 208 195 249 330 45 212 272 242 195 197 188 343 199 195 145 109 127 161 181 124 103 161 179 177 217 272 271 278 273 275 256 167 157 157 161 169
44 38 34 28 22 17 11 7 2 356 349 345 341 341 343 341 338 328 317 318 320 327 331 335 340 343 347 349 345 18 72 88 334 5 356 359 355 351 360 354 357 2 9 23 21 77 89 49 59 147 94 15 223 197 239 351 35 153 263 302 249 203 189 284 196 188 155 133 176 172 126 129 150 176 114 199 252 321 317 298 285 65 92 126 135 144 149 152
35 31 26 22 18 14 11 6 358 351 344 339 335 334 335 335 333 326 317 313 314 323 330 339 343 343 348 355 16 29 38 309 344 357 350 355 349 352 357 351 4 4 32 38 27 141 122 73 169 161 119 257 192 165 137 18 26 142 228 288 81 210 281 296 106 153 178 163 176 125 114 196 205 156 117 234 311 333 326 341 22 88 79 87 99 99 108 113
27 23 19 16 14 11 7 1 354 348 342 336 333 331 329 331 330 327 321 312 313 317 328 344 349 349 348 4 84 46 339 297 360 357 350 350 347 350 342 358 20 19 66 52 48 125 137 171 202 179 157 194 167 153 112 178 269 203 192 208 146 247 307 297 146 174 206 192 159 145 76 274 232 155 139 115 2 342 345 29 41 71 64 63 75 78 92 98
20 16 14 12 12 9 4 358 352 346 342 339 337 334 330 327 325 325 321 317 314 311 322 338 344 352 352 16 67 47 288 31 14 3 358 353 349 340 331 12 30 40 80 66 61 89 119 178 175 141 133 127 148 148 146 164 193 181 160 165 186 302 330 220 203 240 273 246 189 175 142 334 277 334 159 342 1 353 32 45 41 62 58 57 62 59 75 79
16 12 10 10 13 9 2 357 351 347 346 346 344 340 334 328 323 319 317 320 316 313 319 325 338 349 357 62 84 83 289 53 21 10 358 349 352 344 7 21 21 40 74 75 69 80 114 171 149 112 131 143 138 115 211 176 127 132 131 138 278 347 3 7 146 252 351 199 200 159 134 342 335 50 337 331 349 0 55 52 42 59 55 53 59 52 60 60
11 8 9 12 12 6 2 357 352 351 350 349 347 342 338 331 325 318 314 318 317 319 319 323 337 344 22 65 102 150 35 58 22 7 354 350 1 354 47 20 3 19 91 98 107 93 105 174 143 101 230 153 137 136 183 162 104 131 128 176 284 2 32 340 7 258 313 168 199 151 110 343 8 48 335 336 342 19 60 58 45 57 56 57 65 60 58 60
8 9 13 14 10 5 1 357 353 352 351 349 346 343 338 331 327 323 316 315 315 320 320 325 333 343 51 44 129 121 57 61 4 352 350 359 4 353 135 3 350 320 215 140 143 112 122 181 146 110 141 117 145 184 113 80 67 190 106 117 301 359 358 316 24 254 216 162 218 185 264 297 353 341 339 346 343 54 60 55 51 61 64 66 71 72 66 62
7 11 14 11 7 4 1 357 355 354 352 349 346 343 336 327 324 320 318 318 317 316 318 328 336 7 73 36 189 65 22 12 344 345 354 0 1 7 224 336 336 245 200 163 148 110 124 158 128 95 98 89 163 135 59 13 27 160 13 50 1 350 285 296 20 288 164 162 321 131 232 263 285 338 347 350 359 87 75 56 63 68 72 74 77 78 73 63
7 11 12 7 5 4 1 358 357 357 353 349 346 341 335 332 326 321 325 324 323 318 321 350 16 78 79 9 205 27 354 351 346 349 359 357 358 356 307 333 3 157 161 161 142 116 128 138 105 80 88 359 69 94 17 349 13 34 339 308 341 168 268 309 15 39 113 6 9 94 212 260 304 340 347 351 23 92 87 72 76 77 83 85 83 81 80 72
8 13 9 6 5 4 360 357 358 359 356 351 348 343 342 350 346 352 359 342 334 324 351 49 74 97 86 15 355 13 0 343 343 348 357 351 351 335 325 346 93 106 143 151 133 120 116 103 77 75 132 40 77 96 40 9 350 356 92 243 271 186 284 324 24 16 22 323 2 51 216 231 9 334 346 4 40 93 94 87 84 85 88 88 86 84 82 78
12 12 5 5 3 0 357 355 357 359 359 355 350 347 354 4 14 43 27 360 358 34 82 73 93 103 80 25 22 350 330 326 335 347 351 347 343 330 336 9 92 63 118 137 136 135 61 63 89 314 59 48 89 91 41 349 306 322 28 230 250 207 247 311 334 356 18 85 341 20 139 145 25 337 353 9 41 92 94 92 90 90 89 85 85 82 79 78
14 8 2 2 359 357 356 353 352 356 359 359 353 351 6 9 48 66 24 2 1 83 81 38 32 93 351 348 3 305 311 316 330 355 355 349 343 331 347 32 70 62 81 73 98 97 7 42 83 42 16 0 42 90 118 243 231 258 274 269 295 286 227 272 277 317 23 56 219 3 14 38 13 360 10 12 45 88 89 91 93 93 91 88 85 82 81 78
11 3 359 358 356 355 355 354 351 351 357 2 356 352 22 11 87 70 30 35 54 46 49 333 21 101 276 314 305 310 317 311 321 2 360 355 346 324 350 19 45 95 79 35 334 12 41 53 61 101 272 286 232 157 192 215 186 196 228 194 243 276 262 247 250 284 21 57 283 94 105 6 9 7 15 14 53 84 87 92 94 94 92 91 87 84 83 80
4 0 357 355 354 354 356 357 355 354 359 5 5 9 34 13 11 357 18 37 70 82 64 245 177 107 304 314 317 333 338 314 277 8 2 355 339 325 355 10 27 61 74 203 282 1 85 76 257 227 242 256 248 211 174 171 141 110 136 166 231 241 271 270 275 318 343 127 317 106 97 47 17 4 7 12 58 73 81 95 98 98 96 93 93 91 86 83
358 357 354 353 353 354 358 359 1 4 4 11 25 55 91 36 26 322 341 11 249 86 27 243 210 264 289 294 325 346 1 350 319 1 3 353 336 324 326 17 42 38 12 244 269 354 62 69 245 245 253 257 267 172 120 99 85 68 148 205 283 229 255 276 272 319 318 146 271 123 90 43 21 11 7 22 59 56 60 97 104 105 101 95 96 94 91 89
354 354 353 352 354 355 358 360 4 6 6 20 43 73 108 112 110 220 295 354 284 337 11 298 301 312 287 267 348 2 55 16 331 339 359 357 1 3 328 40 65 10 344 354 326 359 21 259 248 256 235 109 63 88 92 79 87 70 114 170 291 253 276 299 308 324 341 69 254 137 89 58 34 41 34 31 58 56 43 80 94 104 105 100 100 100 99 97
351 353 354 353 355 357 357 360 3 2 12 35 56 82 105 106 126 153 116 89 303 327 17 7 17 331 331 41 14 11 56 35 314 312 353 0 12 32 48 54 58 52 4 15 125 35 345 263 251 247 158 99 47 37 61 57 61 118 152 171 262 289 334 279 304 324 336 58 155 127 97 102 74 56 55 35 57 72 60 69 67 75 95 97 95 94 97 99
350 352 355 354 357 358 354 356 7 9 24 52 60 73 110 121 127 127 95 89 329 316 346 318 194 309 335 350 3 14 82 75 276 303 350 7 4 18 73 70 50 53 4 31 124 136 258 255 174 82 41 92 227 9 58 88 339 300 192 189 236 282 251 225 285 323 337 23 96 117 79 88 85 70 75 54 64 69 59 72 69 56 72 82 80 75 77 87
352 352 354 354 356 356 352 356 17 13 28 59 49 55 99 107 129 134 88 76 329 311 334 274 194 12 312 330 360 4 150 13 247 282 340 11 354 355 51 97 54 35 296 126 90 83 301 271 161 89 43 62 101 337 344 167 301 314 229 208 214 199 213 240 343 1 23 2 4 76 335 307 32 89 116 82 66 65 49 63 69 62 68 77 79 79 78 80
353 352 353 353 352 355 353 0 10 5 26 51 25 18 70 85 146 154 86 63 1 310 352 321 173 358 342 347 352 2 100 348 249 290 347 10 353 135 65 312 30 44 204 150 72 82 350 19 69 106 95 60 62 23 279 152 102 338 224 185 180 145 131 15 16 24 67 269 299 63 208 264 315 130 155 108 80 73 63 63 63 64 71 78 85 90 92 91
351 350 351 351 351 357 1 343 354 4 42 17 2 7 24 162 116 133 67 43 8 302 348 317 314 8 347 329 344 75 83 313 310 26 6 7 344 116 49 335 4 24 214 113 44 65 304 356 31 53 75 58 54 53 272 130 105 291 205 139 141 139 225 218 130 167 218 262 317 25 128 240 282 219 148 118 98 83 73 70 58 62 75 82 86 91 94 96
347 347 350 352 353 2 16 19 4 28 42 347 359 29 67 134 122 98 82 67 337 344 21 296 315 6 340 332 6 72 288 314 25 339 337 15 356 7 48 16 148 338 332 79 307 271 274 358 16 38 57 56 75 240 217 141 120 259 182 125 135 139 201 170 134 166 274 14 317 320 75 228 275 65 92 146 114 120 124 94 74 74 86 93 91 93 94 91
343 345 351 355 357 5 18 35 35 35 12 357 22 30 111 120 71 64 78 109 294 6 179 303 352 337 342 355 14 31 352 355 50 310 333 21 7 25 77 170 130 126 336 66 172 234 314 343 200 95 76 94 243 261 199 161 252 218 125 92 59 61 67 91 103 129 57 30 265 287 5 178 273 188 149 203 150 179 178 122 94 91 95 103 102 103 106 101
341 347 353 358 7 7 11 35 30 21 4 357 344 202 137 95 60 64 52 252 320 333 264 21 11 331 3 18 353 356 15 353 323 325 348 10 348 21 86 185 100 111 353 27 105 227 333 332 194 97 91 205 222 302 170 172 184 118 104 69 54 39 37 50 63 102 62 342 253 270 296 109 310 265 161 165 200 205 182 159 132 109 102 109 108 114 124 122
343 353 358 8 18 14 13 13 8 7 360 352 209 146 110 45 60 86 63 286 334 338 2 16 351 4 29 36 338 344 6 331 331 5 11 359 356 12 34 17 40 58 11 10 0 323 9 26 344 337 1 61 92 49 35 6 51 99 81 47 40 355 15 26 352 48 71 288 264 278 290 124 210 261 216 313 315 268 198 172 151 131 122 123 120 122 134 134
352 2 13 23 25 21 23 1 351 358 352 356 134 98 83 45 28 86 286 318 346 342 6 334 322 6 9 10 345 330 332 331 356 45 30 15 33 22 25 27 10 15 6 345 331 342 6 331 318 328 345 49 57 3 8 5 21 43 50 54 40 348 6 7 327 1 183 238 261 335 26 131 211 204 303 309 316 302 206 142 134 135 130 130 131 125 121 123
1 20 33 29 25 23 21 5 351 355 350 121 121 57 72 79 27 248 278 325 357 323 342 265 311 340 333 350 355 324 325 337 356 37 45 58 65 29 358 18 48 30 351 326 352 357 338 306 335 6 336 17 68 45 3 330 357 17 67 87 67 38 17 320 287 319 288 264 271 316 356 293 253 70 330 315 326 338 83 101 109 118 120 127 130 120 103 101
2 43 47 27 20 13 7 0 354 355 15 108 93 48 64 69 272 262 304 282 274 325 356 353 319 336 20 29 344 324 9 345 347 19 6 23 50 15 343 355 16 46 64 26 20 29 1 306 322 19 321 0 41 71 120 140 18 359 176 125 106 136 112 273 242 243 287 290 297 299 296 230 252 3 352 346 16 54 77 85 90 90 95 107 106 108 111 125
0 96 49 19 10 0 354 351 350 358 94 90 61 61 80 97 254 210 290 268 296 328 318 331 357 11 8 337 329 351 55 314 343 28 22 31 59 13 349 338 349 28 77 39 330 147 23 272 267 305 307 39 45 281 120 87 53 272 184 93 65 177 154 200 204 185 228 320 315 274 223 200 172 20 11 59 72 69 69 71 80 80 73 82 95 137 242 253
1 154 45 14 2 352 348 345 346 8 113 88 61 58 130 195 228 166 215 288 347 319 323 352 31 34 343 317 333 359 21 284 335 23 29 42 128 314 349 280 318 18 64 89 277 340 8 281 283 337 347 69 89 263 22 53 3 6 67 76 232 180 128 111 292 6 72 54 297 252 231 284 18 353 320 74 81 75 89 91 92 97 83 85 118 259 261 258
16 187 211 7 356 349 347 348 354 68 90 79 80 98 202 197 158 172 225 330 285 288 22 20 17 17 340 312 314 328 341 319 341 26 16 4 86 6 359 289 274 28 24 153 244 245 178 278 303 22 74 331 209 235 28 27 95 68 25 228 205 95 93 100 2 355 33 3 280 1 283 287 334 307 285 259 188 197 184 154 112 119 119 104 299 289 269 264
114 166 172 359 352 349 351 4 30 101 79 65 82 131 176 42 21 198 206 49 227 35 57 55 339 17 50 297 299 310 336 346 352 21 15 339 25 104 51 333 21 72 329 318 284 282 126 286 307 335 161 301 326 78 18 341 20 68 132 204 98 77 31 27 35 356 356 312 291 321 311 272 238 212 233 232 214 201 190 170 145 171 190 253 313 305 285 283
107 70 116 350 349 351 360 28 56 77 66 65 92 135 153 308 284 216 183 80 104 74 67 177 296 11 99 190 275 300 337 2 340 4 45 15 7 80 93 332 322 6 326 340 173 256 81 99 292 277 231 312 2 47 0 325 337 14 32 7 29 122 164 292 40 151 230 294 285 324 343 310 241 213 212 231 219 189 173 167 174 214 235 251 276 287 287 291
87 39 195 344 349 352 42 51 52 57 62 96 158 158 49 318 291 334 42 57 114 124 58 193 197 345 316 299 304 299 342 11 305 349 5 330 349 32 53 40 318 317 324 25 84 314 15 124 259 288 316 356 14 2 325 285 308 2 36 23 0 1 115 21 44 115 124 202 216 336 325 277 256 226 242 257 235 168 159 163 182 219 248 261 265 274 285 288
68 53 271 342 348 338 82 48 46 55 78 99 113 120 43 51 331 359 24 52 77 199 167 155 162 213 299 333 338 264 315 330 310 314 290 322 28 10 15 61 317 312 334 24 42 4 9 143 228 297 332 349 289 283 276 230 201 150 108 111 144 353 50 65 327 329 62 149 179 149 299 273 269 25 292 286 149 140 142 144 166 237 258 269 275 277 282 288
64 75 313 346 354 107 83 47 30 52 89 82 49 113 13 55 84 359 9 48 29 306 60 103 137 136 168 249 299 240 294 303 256 304 263 228 20 328 336 19 300 294 347 10 328 271 133 102 94 285 283 287 289 290 301 230 171 127 98 120 134 99 84 113 219 273 341 310 178 125 295 266 265 343 336 28 92 117 119 123 137 277 268 273 285 285 287 294
73 156 334 354 355 145 73 47 333 22 55 231 17 139 353 45 103 337 1 23 11 21 19 25 166 30 166 220 287 235 268 244 212 237 267 239 264 256 338 342 295 277 101 38 312 323 58 73 28 298 293 316 319 321 1 35 93 80 26 46 89 41 77 143 173 184 228 254 185 98 280 264 285 27 55 59 65 75 80 114 240 285 286 294 300 300 304 315
106 197 335 8 19 143 87 75 135 42 13 293 36 35 350 40 101 7 6 359 357 88 55 352 214 7 255 161 141 219 260 291 249 295 67 192 246 175 122 324 303 357 80 127 314 344 334 2 58 4 346 347 348 352 348 344 27 53 8 31 57 66 81 117 153 89 280 237 164 146 244 258 273 52 45 46 50 42 2 312 292 300 305 310 306 304 319 350
68 165 290 12 37 68 98 149 146 123 118 48 51 20 354 32 53 6 87 13 310 161 142 324 204 153 225 136 59 281 299 280 267 330 35 314 272 192 106 305 294 6 21 262 304 344 259 228 99 84 39 337 318 312 299 298 331 357 6 20 23 63 93 149 233 69 288 258 132 157 227 269 288 92 34 28 37 4 335 332 325 312 305 305 309 321 343 11
80 65 310 349 28 55 79 128 101 109 132 102 61 16 16 27 309 280 150 150 286 174 142 317 298 95 27 31 19 325 316 300 277 344 8 297 279 293 40 293 269 276 267 265 21 67 107 35 82 143 170 202 240 252 264 1 336 302 310 350 15 31 69 98 95 111 193 226 331 211 209 308 322 16 54 26 17 348 324 328 324 317 316 313 319 348 351 354
92 83 19 332 358 31 40 21 40 72 116 115 92 12 354 333 316 312 169 191 211 168 84 21 48 43 3 10 16 311 302 331 340 337 330 274 276 293 301 219 293 303 291 252 51 79 87 342 343 159 206 230 241 261 320 39 235 253 282 327 16 17 52 101 150 234 173 89 296 240 158 325 312 337 47 359 351 330 311 318 318 315 318 317 330 352 336 336
69 135 187 144 57 38 27 16 46 63 53 77 114 60 353 350 358 355 271 304 357 103 78 17 25 29 305 289 36 310 314 341 339 290 334 299 308 332 342 22 346 326 348 26 355 88 110 294 299 156 261 260 258 281 315 101 221 240 340 342 341 42 123 150 216 226 154 163 265 249 172 296 294 339 21 331 322 307 302 305 309 310 313 321 337 342 328 343
76 116 314 14 95 136 159 348 73 73 46 55 88 65 42 27 8 309 256 351 352 335 55 358 332 344 302 221 145 280 310 342 318 291 260 314 314 347 0 336 315 346 35 39 350 94 129 275 266 141 298 291 292 300 291 126 314 16 56 16 234 178 175 183 227 215 171 228 261 286 306 287 270 165 313 311 290 276 293 305 312 318 321 332 347 343 328 346
120 143 142 55 67 94 53 18 70 75 38 41 63 48 84 70 331 303 253 104 344 323 25 357 306 316 304 182 156 220 245 197 244 259 201 79 312 261 157 253 266 349 19 42 341 340 55 316 293 86 332 306 314 333 322 157 157 118 77 22 28 73 116 156 258 199 169 275 281 310 310 289 245 200 292 300 290 297 317 319 320 323 326 340 1 346 333 342
103 131 138 105 58 359 9 21 65 81 36 11 45 51 314 272 269 277 266 220 201 269 311 290 294 311 22 137 181 245 246 203 220 241 207 185 259 220 203 223 185 347 357 27 345 348 39 4 1 56 5 287 296 344 342 43 101 97 38 3 4 30 53 236 271 230 212 283 299 319 313 285 257 298 302 302 312 323 322 317 317 323 334 3 4 335 336 336
103 83 98 103 74 354 3 8 33 76 68 330 290 225 277 288 258 183 288 297 226 231 242 199 191 301 340 334 259 246 241 209 216 238 208 175 156 139 167 13 99 45 332 98 34 354 88 85 22 57 10 270 290 326 333 55 76 10 322 308 273 287 268 259 294 279 233 233 283 293 277 258 275 311 318 324 328 326 320 318 323 325 339 38 350 329 333 327